This demonstration page uses our WeatherBlox Daily Observations layout. Learn more.

Left ArrowRight Arrow

39.51506, -84.39828

Hourly Observations for May 8, 2018

Temp ( °F °C ) Dew Point ( °F °C ) Humidity (%) Winds ( mph kmh ) Pressure ( in mb ) Visibility ( mi km ) Precip ( " mm )
12:15 am 00:15 Clear 47 8.3 44 6.8 90 90 N 5 7 30.18 1022 10 16 N/A
12:35 am 00:35 Clear 50 10.2 46 7.7 85 85 N 5 7 30.18 1022 10 16 N/A
12:55 am 00:55 Clear 49 9.2 44 6.8 85 85 N 5 7 30.18 1022 10 16 N/A
1:15 am 01:15 Clear 49 9.4 46 7.6 89 89 N N/A 30.18 1022 10 16 N/A
1:35 am 01:35 Clear 49 9.3 46 7.5 89 89 NE 3 6 30.18 1022 10 16 N/A
1:55 am 01:55 Clear 49 9.4 46 7.6 89 89 N N/A 30.18 1022 10 16 N/A
2:15 am 02:15 Clear 48 8.9 45 7.3 90 90 N N/A 30.18 1022 10 16 N/A
2:35 am 02:35 Clear 47 8.2 44 6.7 90 90 N 5 7 30.18 1022 10 16 N/A
2:55 am 02:55 Clear 47 8.1 44 6.6 90 90 N N/A 30.18 1022 10 16 N/A
3:15 am 03:15 Clear 47 8.1 44 6.6 90 90 N N/A 30.15 1021 10 16 N/A
3:35 am 03:35 Clear 46 7.9 44 6.6 92 92 N N/A 30.18 1022 10 16 N/A
3:55 am 03:55 Clear 45 7.4 43 6.3 93 93 N N/A 30.18 1022 10 16 N/A
4:15 am 04:15 Clear 45 7.4 43 6.1 92 92 N N/A 30.18 1022 10 16 N/A
4:35 am 04:35 Clear 45 7.4 43 6.3 93 93 N 3 6 30.18 1022 10 16 N/A
4:55 am 04:55 Clear 45 7.2 44 6.4 95 95 N N/A 30.18 1022 10 16 N/A
5:15 am 05:15 Clear 44 6.7 42 5.7 93 93 N N/A 30.18 1022 10 16 N/A
5:35 am 05:35 Clear 43 6.3 42 5.8 97 97 N N/A 30.18 1022 10 16 N/A
5:55 am 05:55 Clear 44 6.6 42 5.8 95 95 N 3 6 30.18 1022 10 16 N/A
6:15 am 06:15 Clear 42 5.8 41 5.2 96 96 N N/A 30.18 1022 10 16 N/A
6:35 am 06:35 Sunny 42 5.5 41 4.9 96 96 N N/A 30.18 1022 10 16 N/A
6:55 am 06:55 Sunny 43 6 42 5.3 95 95 N 3 6 30.18 1022 10 16 N/A
7:15 am 07:15 Sunny 44 6.7 43 6.2 97 97 N N/A 30.18 1022 7 11 N/A
7:35 am 07:35 Sunny 46 7.9 45 7 94 94 N N/A 30.21 1023 10 16 N/A
7:55 am 07:55 Sunny 49 9.4 46 7.8 90 90 ENE 3 6 30.21 1023 10 16 N/A
8:15 am 08:15 Sunny 50 10.2 47 8.6 90 90 N N/A 30.21 1023 10 16 N/A
8:35 am 08:35 Sunny 53 11.4 47 8.5 83 83 N N/A 30.21 1023 10 16 N/A
8:55 am 08:55 Sunny 56 13.1 48 8.8 75 75 NNE 3 6 30.21 1023 10 16 N/A
9:15 am 09:15 Sunny 57 14.1 48 9.1 72 72 N N/A 30.21 1023 10 16 N/A
9:35 am 09:35 Sunny 59 15.1 47 8.5 65 65 ENE 3 6 30.21 1023 10 16 N/A
9:55 am 09:55 Sunny 61 16 48 8.7 62 62 NE 3 6 30.21 1023 10 16 N/A
10:15 am 10:15 Sunny 62 16.7 47 8.2 57 57 N N/A 30.21 1023 10 16 N/A
10:35 am 10:35 Sunny 64 17.8 48 8.9 56 56 ENE 3 6 30.18 1022 10 16 N/A
10:55 am 10:55 Sunny 65 18.6 47 8.4 52 52 NE 5 7 30.18 1022 10 16 N/A
11:15 am 11:15 Sunny 67 19.3 44 6.9 45 45 E 3 6 30.18 1022 10 16 N/A
11:35 am 11:35 Sunny 68 19.9 41 5 38 38 E 5 7 30.18 1022 10 16 N/A
11:55 am 11:55 Sunny 69 20.4 40 4.7 36 36 NE 3 6 30.18 1022 10 16 N/A
12:15 pm 12:15 Sunny 70 20.9 39 3.7 32 32 N N/A 30.15 1021 10 16 N/A
12:35 pm 12:35 Hazy 69 20.8 41 4.9 35 35 N N/A 30.15 1021 7 11 N/A
12:55 pm 12:55 Sunny 71 21.9 42 5.5 35 35 E 6 9 30.15 1021 10 16 N/A
1:15 pm 13:15 Sunny 70 21.3 39 3.8 32 32 N N/A 30.15 1021 10 16 N/A
1:35 pm 13:35 Sunny 72 22 41 4.9 33 33 E 3 6 30.15 1021 10 16 N/A
1:55 pm 13:55 Sunny 72 22.3 42 5.6 34 34 N N/A 30.12 1020 10 16 N/A
2:15 pm 14:15 Sunny 73 22.8 45 7.3 37 37 SW 6 9 30.12 1020 10 16 N/A
2:35 pm 14:35 Sunny 73 22.7 42 5.3 32 32 N N/A 30.12 1020 10 16 N/A
2:55 pm 14:55 Sunny 74 23.2 45 7.1 36 36 WNW 3 6 30.12 1020 10 16 N/A
3:15 pm 15:15 Sunny 75 23.7 47 8.4 38 38 SW 7 11 30.12 1020 10 16 N/A
3:35 pm 15:35 Sunny 75 23.7 45 7.2 35 35 SW 6 9 30.09 1019 10 16 N/A
3:55 pm 15:55 Sunny 75 24.1 46 7.5 35 35 WSW 8 13 30.09 1019 10 16 N/A
4:15 pm 16:15 Sunny 76 24.3 47 8.5 37 37 SSW 6 9 30.09 1019 10 16 N/A
4:35 pm 16:35 Sunny 76 24.2 45 7.1 33 33 WSW 5 7 30.09 1019 10 16 N/A
4:55 pm 16:55 Sunny 76 24.3 46 8 35 35 WSW 8 13 30.09 1019 10 16 N/A
5:15 pm 17:15 Sunny 76 24.3 47 8.2 36 36 W 8 13 30.06 1018 10 16 N/A
5:35 pm 17:35 Sunny 76 24.4 45 7.4 34 34 W 6 9 30.06 1018 10 16 N/A
5:55 pm 17:55 Sunny 76 24.5 46 8 35 35 WSW 5 7 30.06 1018 10 16 N/A
6:15 pm 18:15 Sunny 76 24.5 47 8.2 35 35 W 7 11 30.06 1018 10 16 N/A
6:35 pm 18:35 Sunny 76 24.5 47 8.2 35 35 WSW 5 7 30.06 1018 10 16 N/A
6:55 pm 18:55 Sunny 76 24.3 46 7.8 35 35 SW 7 11 30.06 1018 10 16 N/A
7:15 pm 19:15 Sunny 76 24.2 45 7.3 34 34 N N/A 30.06 1018 10 16 N/A
7:35 pm 19:35 Sunny 75 23.7 47 8.5 38 38 SSW 5 7 30.03 1017 10 16 N/A
7:55 pm 19:55 Sunny 73 22.5 48 8.8 42 42 S 7 11 30.03 1017 10 16 N/A
8:15 pm 20:15 Sunny 71 21.4 48 9 45 45 WSW 5 7 30.06 1018 10 16 N/A
8:35 pm 20:35 Sunny 66 19 53 11.9 64 64 WNW 5 7 30.06 1018 10 16 N/A
8:55 pm 20:55 Clear 62 16.5 54 12 75 75 N N/A 30.06 1018 10 16 N/A
9:15 pm 21:15 Clear 60 15.8 53 11.5 76 76 N N/A 30.09 1019 10 16 N/A
9:35 pm 21:35 Clear 61 15.9 52 11.3 74 74 NNE 3 6 30.09 1019 10 16 N/A
9:55 pm 21:55 Clear 58 14.7 53 11.5 81 81 NNE 3 6 30.09 1019 10 16 N/A
10:15 pm 22:15 Clear 57 14 52 11 82 82 N N/A 30.09 1019 10 16 N/A
10:35 pm 22:35 Clear 57 14.1 52 10.9 81 81 N 3 6 30.09 1019 10 16 N/A
10:55 pm 22:55 Clear 56 13.6 49 9.6 77 77 N 5 7 30.09 1019 10 16 N/A
11:15 pm 23:15 Clear 56 13.1 50 10 82 82 N N/A 30.09 1019 10 16 N/A
11:35 pm 23:35 Clear 55 12.8 50 9.9 83 83 N N/A 30.09 1019 10 16 N/A
11:55 pm 23:55 Clear 54 12.3 49 9.5 83 83 N N/A 30.09 1019 10 16 N/A

Powered by AerisWeather